Terug naar catalogus

STARLINK-2751

ActiefCommunicatieVLEO
NORAD 48685·PAYLOAD·🇺🇸 United States

Gelanceerd May 26, 2021 vanaf Cape Canaveral Space Force Station

Loading…

Volgende Passages (komende 24 uur)

TLE

VersSource: CelesTrak SupGP

Epoch: Sep 15, 2026, 00:45 UTC

1 48685C 21044AZ  26258.03173611  .00017295  00000+0  55619-3 0  2587
2 48685  53.1585 263.7530 0001350  98.4236 354.9654 15.31691860    14

Volg STARLINK-2751 in realtime met AllMySat

Download on the App Store